Regional Weather Roundup
Issued by NWS

Home | Current Version | Previous Version | Text Only | Print | Product List | Glossary Off
Versions: 1 2 3 4 5 6 7 8 9 10 11 12 13 14 15 16 17 18 19 20 21 22 23 24 25 26 27 28 29 30 31 32 33 34 35 36 37 38 39 40 41 42 43 44 45 46 47 48 49 50

000
ASUS43 KLMK 311602
RWRKY
KENTUCKY REGIONAL WEATHER ROUNDUP
NATIONAL WEATHER SERVICE LOUISVILLE KY
1200 PM EDT THU JUL 31 2014

NOTE "FAIR" INDICATES FEW OR NO CLOUDS BELOW 12,000 FEET
WITH NO SIGNIFICANT WEATHER AND/OR OBSTRUCTIONS TO VISIBILITY.

KYZ001>023-026-027-061>063-070>075-311700-
WESTERN AND SOUTH CENTRAL KENTUCKY

CITY           SKY/WX    TMP DP  RH WIND       PRES   REMARKS
PADUCAH        MOSUNNY   80  61  52 S7        30.11R
HENDERSON      SUNNY     79  63  57 SW5       30.10S
OWENSBORO      MOSUNNY   78  61  55 CALM      30.12S
HOPKINSVILLE   SUNNY     80  55  42 W5        30.11S
BOWLING GREEN  SUNNY     80  56  43 CALM      30.12S
GLASGOW        SUNNY     78  58  50 E5        30.12S
$$

KYZ024-025-028>034-038-045-046-053-311700-
NORTH CENTRAL KENTUCKY

CITY           SKY/WX    TMP DP  RH WIND       PRES   REMARKS
LOUISVILLE/SDF MOSUNNY   81  59  47 VRB5      30.10F
LOUISVILLE/LOU MOSUNNY   78  57  48 CALM      30.11S
FORT KNOX      MOSUNNY   77  61  58 VRB1      30.11S
$$

KYZ035>037-039>044-047>052-055>060-089>105-311700-
NORTHEAST KENTUCKY

CITY           SKY/WX    TMP DP  RH WIND       PRES   REMARKS
LEXINGTON      SUNNY     78  56  46 SW6       30.13S
COVINGTON      MOSUNNY   78  60  53 W8        30.11S
FRANKFORT      MOSUNNY   78  59  51 MISG      30.12S
$$

KYZ054-064>069-076>088-106>120-311700-
SOUTHEAST KENTUCKY

CITY           SKY/WX    TMP DP  RH WIND       PRES   REMARKS
JACKSON        MOSUNNY   76  59  55 CALM      30.15S
LONDON         MOSUNNY   77  58  51 S5        30.15S
SOMERSET       NOT AVBL
MIDDLESBORO    MOSUNNY   71  62  72 CALM      30.15F
MONTICELLO     MOSUNNY   80  62  54 CALM      30.15S
$$



USA.gov is the U.S. government's official web portal to all federal, state and local government web resources and services.